Regional Weather Roundup
Issued by NWS

Home | Current Version | Previous Version | Graphics & Text | Print | Product List | Glossary On
Versions: 1 2 3 4 5 6 7 8 9 10 11 12 13 14 15 16 17 18 19 20 21 22 23 24 25 26 27 28 29 30 31 32 33 34 35 36 37 38 39 40 41 42 43 44 45 46 47 48 49 50
000
ASUS45 KCYS 062310
RWRWY

WYOMING REGIONAL WEATHER ROUNDUP
NATIONAL WEATHER SERVICE CHEYENNE WY
400 PM MST FRI MAR 06 2015

NOTE:  "FAIR" INDICATES FEW OR NO CLOUDS BELOW 12,000 FEET
WITH NO SIGNIFICANT WEATHER AND/OR OBSTRUCTIONS TO VISIBILITY.

WYZ001-070000-
YELLOWSTONE NATIONAL PARK

CITY           SKY/WX    TMP DP  RH WIND       PRES   REMARKS
LK YELLOWSTONE   N/A     40  13  33 W9G18     30.34S WCI  34
W YELLOWSTONE  NOT AVBL

$$
WYZ002>013-054>058-071-098>099-070000-
NORTHERN WYOMING

CITY           SKY/WX    TMP DP  RH WIND       PRES   REMARKS
JACKSON        SUNNY     36  19  51 VRB5      30.36S WCI  32
CODY           FAIR      54  16  22 NW13G21   30.19S
GREYBULL       FAIR      53  16  23 S8        30.20S
WORLAND        FAIR      51  21  30 SE6       30.21S
SHERIDAN       FAIR      53  26  35 W8        30.14R
BUFFALO        FAIR      50  17  27 CALM      30.17F
GILLETTE       FAIR      51  23  33 NW17      30.14S
HULETT         FAIR      52  21  30 NW10G22   30.13R
NEWCASTLE      FAIR      52  18  25 NW17G26   30.14S

$$
WYZ014>020-022>026-101>103-070000-
CENTRAL WYOMING

CITY           SKY/WX    TMP DP  RH WIND       PRES   REMARKS
BIG PINEY      FAIR      47  14  26 N21G29    30.33S
PINEDALE       FAIR      37  21  52 W22G29    30.33R WCI  27
DUBOIS         FAIR      41  14  33 W26       30.27R
LANDER         FAIR      44  25  47 S6        30.22S
RIVERTON       FAIR      39  24  55 MISG      30.24F
CASPER         FAIR      41  25  53 SW17      30.23S
DOUGLAS        FAIR      44  25  47 W8        30.21F

$$
WYZ021-027>030-104>119-070000-
SOUTHERN WYOMING

CITY           SKY/WX    TMP DP  RH WIND       PRES   REMARKS
EVANSTON       FAIR      44  21  40 SW13      30.38S
KEMMERER       FAIR      43  18  36 NW17G24   30.37S
FORT BRIDGER   FAIR      46  22  38 W14       30.39S
ROCK SPRINGS   FAIR      43  23  45 SW22      30.31F
DIXON          FAIR      44  22  41 S12       30.38S
RAWLINS        FAIR      38  22  52 SW16      30.31S WCI  29
SARATOGA       FAIR      37  21  52 SW7       30.35S WCI  32
LARAMIE        FAIR      41  19  41 W16       30.26R
CHEYENNE       FAIR      48  19  31 NW13      30.23S
TORRINGTON     FAIR      53  15  22 W16G26    30.19S
PINE BLUFFS    FAIR      50  18  27 NW21G29   30.22F

$$


USA.gov is the U.S. government's official web portal to all federal, state and local government web resources and services.